| time (UTC) | temp F | wind direction | speed MPH | gust MPH | rain 1hr in | rain 24hr in | rain mn in | humidity % | barometer mb |
| 20260506004021 | 58 | 185 | 10.0 | 18.0 | 0.00 | 0.01 | 0.01 | 45 | 1009.0 |
| 20260506003521 | 58 | 185 | 10.0 | 18.0 | 0.00 | 0.01 | 0.01 | 44 | 1009.0 |
| 20260506003021 | 59 | 185 | 6.0 | 12.0 | 0.00 | 0.01 | 0.01 | 43 | 1009.1 |
| 20260506002520 | 60 | 185 | 6.0 | 13.0 | 0.00 | 0.01 | 0.01 | 43 | 1009.1 |
| 20260506002024 | 61 | 185 | 6.0 | 13.0 | 0.00 | 0.01 | 0.01 | 42 | 1009.1 |
| 20260506001520 | 61 | 185 | 4.0 | 17.0 | 0.00 | 0.01 | 0.01 | 43 | 1009.1 |
| 20260506001020 | 60 | 185 | 9.0 | 17.0 | 0.00 | 0.01 | 0.01 | 42 | 1009.2 |
| 20260506000520 | 61 | 185 | 5.0 | 15.0 | 0.00 | 0.01 | 0.01 | 43 | 1009.2 |
| 20260506000023 | 61 | 185 | 7.0 | 15.0 | 0.00 | 0.01 | 0.01 | 42 | 1009.3 |
| 20260505235519 | 61 | 185 | 5.0 | 14.0 | 0.00 | 0.01 | 0.01 | 43 | 1009.1 |
| 20260505235019 | 61 | 185 | 6.0 | 16.0 | 0.00 | 0.01 | 0.01 | 43 | 1009.3 |
| 20260505234519 | 61 | 185 | 7.0 | 16.0 | 0.00 | 0.01 | 0.01 | 44 | 1009.3 |
| 20260505234019 | 60 | 185 | 5.0 | 13.0 | 0.00 | 0.01 | 0.01 | 45 | 1009.4 |
| 20260505233520 | 60 | 185 | 7.0 | 13.0 | 0.00 | 0.01 | 0.01 | 46 | 1009.4 |
| 20260505233018 | 59 | 185 | 5.0 | 11.0 | 0.00 | 0.01 | 0.01 | 48 | 1009.3 |
| 20260505232518 | 60 | 185 | 7.0 | 13.0 | 0.00 | 0.01 | 0.01 | 47 | 1009.3 |
| 20260505232021 | 60 | 185 | 4.0 | 13.0 | 0.00 | 0.01 | 0.01 | 48 | 1009.3 |
| 20260505231533 | 59 | 185 | 2.0 | 8.0 | 0.00 | 0.01 | 0.01 | 49 | 1009.3 |
| 20260505231021 | 59 | 185 | 2.0 | 9.0 | 0.00 | 0.01 | 0.01 | 49 | 1009.4 |
| 20260505230516 | 59 | 185 | 4.0 | 11.0 | 0.00 | 0.01 | 0.01 | 49 | 1009.4 |
| 20260505230023 | 59 | 185 | 3.0 | 16.0 | 0.00 | 0.01 | 0.01 | 49 | 1009.5 |
| 20260505225516 | 59 | 185 | 6.0 | 21.0 | 0.00 | 0.01 | 0.01 | 49 | 1009.4 |
| 20260505225016 | 59 | 185 | 9.0 | 21.0 | 0.00 | 0.01 | 0.01 | 51 | 1009.5 |
| 20260505224516 | 60 | 185 | 8.0 | 18.0 | 0.00 | 0.01 | 0.01 | 49 | 1009.4 |
| 20260505224016 | 60 | 185 | 8.0 | 23.0 | 0.00 | 0.01 | 0.01 | 47 | 1009.7 |
| 20260505223515 | 60 | 185 | 8.0 | 23.0 | 0.00 | 0.01 | 0.01 | 48 | 1009.6 |
| 20260505223015 | 60 | 185 | 6.0 | 16.0 | 0.00 | 0.01 | 0.01 | 45 | 1009.6 |
| 20260505222517 | 61 | 185 | 7.0 | 21.0 | 0.00 | 0.01 | 0.01 | 44 | 1009.5 |
| 20260505222018 | 62 | 185 | 11.0 | 21.0 | 0.00 | 0.01 | 0.01 | 45 | 1009.4 |
| 20260505221515 | 61 | 185 | 7.0 | 19.0 | 0.00 | 0.01 | 0.01 | 44 | 1009.4 |
| 20260505221015 | 60 | 185 | 9.0 | 19.0 | 0.00 | 0.01 | 0.01 | 47 | 1009.3 |
| 20260505220517 | 60 | 185 | 11.0 | 18.0 | 0.00 | 0.01 | 0.01 | 45 | 1009.3 |
| 20260505220017 | 61 | 185 | 11.0 | 18.0 | 0.00 | 0.01 | 0.01 | 47 | 1009.1 |
| 20260505215515 | 61 | 185 | 8.0 | 16.0 | 0.00 | 0.02 | 0.01 | 48 | 1009.2 |
| 20260505215014 | 60 | 185 | 7.0 | 21.0 | 0.00 | 0.02 | 0.01 | 50 | 1009.2 |
| 20260505214514 | 59 | 185 | 9.0 | 21.0 | 0.00 | 0.02 | 0.01 | 50 | 1009.1 |
| 20260505214018 | 59 | 185 | 9.0 | 18.0 | 0.00 | 0.02 | 0.01 | 51 | 1009.3 |
| 20260505213512 | 59 | 185 | 8.0 | 17.0 | 0.00 | 0.02 | 0.01 | 51 | 1009.5 |
| 20260505213017 | 59 | 185 | 8.0 | 15.0 | 0.00 | 0.02 | 0.01 | 52 | 1009.7 |
| 20260505212511 | 59 | 185 | 6.0 | 17.0 | 0.00 | 0.02 | 0.01 | 52 | 1009.7 |
| 20260505212012 | 60 | 185 | 8.0 | 17.0 | 0.00 | 0.02 | 0.01 | 52 | 1009.8 |
| 20260505211513 | 59 | 185 | 7.0 | 17.0 | 0.00 | 0.02 | 0.01 | 53 | 1009.7 |
| 20260505211010 | 60 | 185 | 6.0 | 14.0 | 0.00 | 0.02 | 0.01 | 51 | 1009.6 |
| 20260505210511 | 60 | 185 | 9.0 | 14.0 | 0.00 | 0.02 | 0.01 | 52 | 1009.5 |
| 20260505210013 | 60 | 185 | 6.0 | 15.0 | 0.00 | 0.02 | 0.01 | 50 | 1009.5 |
| 20260505205516 | 61 | 185 | 6.0 | 19.0 | 0.00 | 0.02 | 0.01 | 51 | 1009.5 |
| 20260505205010 | 60 | 185 | 11.0 | 19.0 | 0.00 | 0.02 | 0.01 | 52 | 1009.7 |
| 20260505204512 | 60 | 185 | 14.0 | 18.0 | 0.00 | 0.02 | 0.01 | 52 | 1009.7 |
| 20260505204009 | 60 | 185 | 8.0 | 18.0 | 0.00 | 0.02 | 0.01 | 51 | 1009.7 |
| 20260505203509 | 60 | 185 | 9.0 | 18.0 | 0.00 | 0.02 | 0.01 | 52 | 1009.9 |
| 20260505203014 | 60 | 185 | 8.0 | 17.0 | 0.00 | 0.02 | 0.01 | 52 | 1009.7 |
| 20260505202509 | 61 | 185 | 5.0 | 19.0 | 0.00 | 0.02 | 0.01 | 53 | 1009.7 |
| 20260505202009 | 61 | 185 | 10.0 | 23.0 | 0.01 | 0.02 | 0.01 | 52 | 1009.7 |
| 20260505201513 | 61 | 185 | 10.0 | 23.0 | 0.01 | 0.02 | 0.01 | 53 | 1009.4 |
| 20260505201011 | 61 | 185 | 8.0 | 17.0 | 0.01 | 0.02 | 0.01 | 54 | 1009.5 |
| 20260505200508 | 60 | 185 | 8.0 | 17.0 | 0.01 | 0.02 | 0.01 | 56 | 1009.4 |
| 20260505200011 | 60 | 185 | 9.0 | 17.0 | 0.01 | 0.02 | 0.01 | 58 | 1009.5 |
| 20260505195510 | 59 | 185 | 7.0 | 17.0 | 0.01 | 0.03 | 0.01 | 62 | 1009.6 |
| 20260505195008 | 58 | 185 | 7.0 | 19.0 | 0.01 | 0.03 | 0.01 | 61 | 1009.7 |
| 20260505194508 | 58 | 185 | 8.0 | 19.0 | 0.01 | 0.03 | 0.01 | 67 | 1009.6 |
| 20260505194010 | 57 | 185 | 10.0 | 18.0 | 0.01 | 0.03 | 0.01 | 69 | 1009.7 |
| 20260505193508 | 56 | 185 | 9.0 | 15.0 | 0.01 | 0.03 | 0.01 | 73 | 1009.7 |
| 20260505193008 | 55 | 185 | 8.0 | 15.0 | 0.01 | 0.03 | 0.01 | 78 | 1009.8 |
| 20260505192509 | 54 | 185 | 7.0 | 23.0 | 0.01 | 0.03 | 0.01 | 77 | 1009.9 |
| 20260505192005 | 56 | 185 | 11.0 | 23.0 | 0.00 | 0.02 | 0.00 | 64 | 1009.8 |
| 20260505191509 | 60 | 185 | 10.0 | 18.0 | 0.00 | 0.02 | 0.00 | 46 | 1009.7 |
| 20260505191005 | 62 | 185 | 6.0 | 16.0 | 0.00 | 0.02 | 0.00 | 45 | 1009.5 |
| 20260505190505 | 62 | 185 | 7.0 | 12.0 | 0.00 | 0.02 | 0.00 | 45 | 1009.5 |
| 20260505190001 | 63 | 185 | 5.0 | 12.0 | 0.00 | 0.02 | 0.00 | 46 | 1009.5 |
| 20260505185602 | 61 | 185 | 3.0 | 12.0 | 0.00 | 0.02 | 0.00 | 49 | 1009.6 |
| 20260505185100 | 60 | 185 | 3.0 | 13.0 | 0.00 | 0.02 | 0.00 | 48 | 1009.8 |
| 20260505184559 | 60 | 185 | 6.0 | 11.0 | 0.00 | 0.02 | 0.00 | 48 | 1009.8 |
| 20260505184059 | 59 | 185 | 1.0 | 16.0 | 0.00 | 0.02 | 0.00 | 51 | 1009.9 |
| 20260505183600 | 59 | 185 | 11.0 | 16.0 | 0.00 | 0.02 | 0.00 | 50 | 1009.9 |
| 20260505183100 | 59 | 185 | 8.0 | 16.0 | 0.00 | 0.02 | 0.00 | 50 | 1009.8 |
| 20260505182557 | 59 | 185 | 7.0 | 18.0 | 0.00 | 0.02 | 0.00 | 50 | 1010.0 |
| 20260505182057 | 59 | 185 | 11.0 | 18.0 | 0.00 | 0.02 | 0.00 | 49 | 1010.1 |
| 20260505181556 | 60 | 185 | 12.0 | 17.0 | 0.00 | 0.02 | 0.00 | 48 | 1010.2 |
| 20260505181055 | 60 | 185 | 6.0 | 14.0 | 0.00 | 0.02 | 0.00 | 48 | 1010.2 |
| 20260505180555 | 60 | 185 | 4.0 | 12.0 | 0.00 | 0.02 | 0.00 | 48 | 1010.4 |
| 20260505180101 | 59 | 185 | 7.0 | 12.0 | 0.00 | 0.02 | 0.00 | 49 | 1010.2 |
| 20260505175554 | 59 | 185 | 6.0 | 10.0 | 0.00 | 0.02 | 0.00 | 47 | 1010.4 |
| 20260505175054 | 60 | 185 | 1.0 | 11.0 | 0.00 | 0.02 | 0.00 | 46 | 1010.4 |
| 20260505174555 | 60 | 185 | 1.0 | 11.0 | 0.00 | 0.02 | 0.00 | 47 | 1010.5 |
| 20260505174052 | 59 | 185 | 1.0 | 7.0 | 0.00 | 0.02 | 0.00 | 47 | 1010.7 |
| 20260505173554 | 58 | 185 | 0.0 | 10.0 | 0.00 | 0.02 | 0.00 | 49 | 1010.6 |
| 20260505173057 | 58 | 185 | 6.0 | 10.0 | 0.00 | 0.02 | 0.00 | 48 | 1010.7 |
| 20260505172552 | 58 | 185 | 3.0 | 11.0 | 0.00 | 0.02 | 0.00 | 48 | 1010.7 |
| 20260505172051 | 58 | 185 | 6.0 | 11.0 | 0.00 | 0.02 | 0.00 | 49 | 1010.9 |
| 20260505171551 | 57 | 185 | 3.0 | 9.0 | 0.00 | 0.02 | 0.00 | 50 | 1010.8 |
| 20260505171050 | 57 | 185 | 0.0 | 5.0 | 0.00 | 0.02 | 0.00 | 49 | 1010.8 |
| 20260505170550 | 56 | 185 | 0.0 | 6.0 | 0.00 | 0.02 | 0.00 | 51 | 1010.8 |
| 20260505170106 | 56 | 185 | 0.0 | 6.0 | 0.00 | 0.02 | 0.00 | 52 | 1010.9 |
| 20260505165550 | 55 | 185 | 2.0 | 5.0 | 0.00 | 0.02 | 0.00 | 52 | 1010.8 |
| 20260505165054 | 55 | 185 | 0.0 | 0.0 | 0.00 | 0.02 | 0.00 | 53 | 1010.9 |
| 20260505164553 | 54 | 185 | 0.0 | 5.0 | 0.00 | 0.02 | 0.00 | 53 | 1010.9 |
| 20260505164049 | 54 | 185 | 0.0 | 9.0 | 0.00 | 0.02 | 0.00 | 53 | 1011.1 |
| 20260505163548 | 54 | 185 | 4.0 | 9.0 | 0.00 | 0.02 | 0.00 | 53 | 1011.1 |
| 20260505163049 | 54 | 185 | 4.0 | 8.0 | 0.00 | 0.02 | 0.00 | 53 | 1011.1 |
| 20260505162549 | 54 | 185 | 3.0 | 7.0 | 0.00 | 0.02 | 0.00 | 53 | 1011.1 |
| 20260505162054 | 54 | 185 | 0.0 | 8.0 | 0.00 | 0.02 | 0.00 | 52 | 1011.0 |
| 20260505161552 | 54 | 185 | 1.0 | 10.0 | 0.00 | 0.02 | 0.00 | 52 | 1011.1 |
| 20260505161049 | 54 | 185 | 5.0 | 10.0 | 0.00 | 0.02 | 0.00 | 51 | 1011.1 |
| 20260505160548 | 54 | 185 | 2.0 | 12.0 | 0.00 | 0.02 | 0.00 | 52 | 1011.3 |
| 20260505153059 | 54 | 185 | 6.0 | 11.0 | 0.00 | 0.02 | 0.00 | 51 | 1011.2 |
| 20260505152548 | 54 | 185 | 7.0 | 11.0 | 0.00 | 0.02 | 0.00 | 52 | 1011.3 |
| 20260505152046 | 54 | 185 | 3.0 | 11.0 | 0.00 | 0.02 | 0.00 | 51 | 1011.4 |
| 20260505151558 | 54 | 185 | 5.0 | 8.0 | 0.00 | 0.02 | 0.00 | 51 | 1011.4 |
| 20260505151049 | 54 | 185 | 5.0 | 10.0 | 0.00 | 0.02 | 0.00 | 51 | 1011.3 |
| 20260505150545 | 53 | 185 | 4.0 | 11.0 | 0.00 | 0.02 | 0.00 | 51 | 1011.3 |
| 20260505140540 | 54 | 185 | 5.0 | 9.0 | 0.00 | 0.02 | 0.00 | 48 | 1011.4 |
| 20260505125036 | 51 | 185 | 4.0 | 7.0 | 0.00 | 0.02 | 0.00 | 48 | 1011.0 |
| 20260505124536 | 51 | 185 | 5.0 | 8.0 | 0.00 | 0.02 | 0.00 | 48 | 1011.0 |
| 20260505124035 | 51 | 185 | 5.0 | 8.0 | 0.00 | 0.02 | 0.00 | 48 | 1010.8 |
| 20260505123538 | 52 | 185 | 4.0 | 8.0 | 0.00 | 0.02 | 0.00 | 47 | 1011.1 |
| 20260505123034 | 52 | 185 | 3.0 | 7.0 | 0.00 | 0.02 | 0.00 | 46 | 1011.1 |
| 20260505122533 | 52 | 185 | 0.0 | 5.0 | 0.00 | 0.02 | 0.00 | 46 | 1011.1 |
| 20260505122032 | 53 | 185 | 0.0 | 5.0 | 0.00 | 0.02 | 0.00 | 45 | 1011.1 |
| 20260505121532 | 53 | 185 | 1.0 | 5.0 | 0.00 | 0.02 | 0.00 | 44 | 1011.1 |
| 20260505121031 | 53 | 185 | 0.0 | 5.0 | 0.00 | 0.02 | 0.00 | 44 | 1011.1 |
| 20260505120530 | 53 | 185 | 0.0 | 4.0 | 0.00 | 0.02 | 0.00 | 43 | 1010.9 |
| 20260505120030 | 53 | 185 | 0.0 | 4.0 | 0.00 | 0.02 | 0.00 | 43 | 1010.9 |
| 20260505115533 | 53 | 185 | 0.0 | 6.0 | 0.00 | 0.02 | 0.00 | 42 | 1010.9 |
| 20260505115030 | 53 | 185 | 0.0 | 8.0 | 0.00 | 0.02 | 0.00 | 42 | 1010.8 |
| 20260505114530 | 53 | 185 | 3.0 | 7.0 | 0.00 | 0.02 | 0.00 | 42 | 1010.8 |
| 20260505114029 | 53 | 185 | 2.0 | 7.0 | 0.00 | 0.02 | 0.00 | 41 | 1010.8 |
| 20260505113529 | 53 | 185 | 0.0 | 7.0 | 0.00 | 0.02 | 0.00 | 41 | 1010.9 |
| 20260505113029 | 53 | 185 | 2.0 | 7.0 | 0.00 | 0.02 | 0.00 | 41 | 1010.9 |
| 20260505112529 | 54 | 185 | 5.0 | 8.0 | 0.00 | 0.02 | 0.00 | 40 | 1010.9 |
| 20260505112028 | 54 | 185 | 5.0 | 8.0 | 0.00 | 0.02 | 0.00 | 40 | 1010.9 |
| 20260505111528 | 53 | 185 | 4.0 | 8.0 | 0.00 | 0.02 | 0.00 | 40 | 1011.0 |
| 20260505111026 | 53 | 185 | 4.0 | 7.0 | 0.00 | 0.02 | 0.00 | 41 | 1011.1 |
| 20260505110527 | 53 | 185 | 0.0 | 8.0 | 0.00 | 0.02 | 0.00 | 40 | 1011.2 |
| 20260505102024 | 53 | 185 | 0.0 | 0.0 | 0.00 | 0.02 | 0.00 | 41 | 1011.0 |
| 20260505101522 | 53 | 185 | 0.0 | 0.0 | 0.00 | 0.02 | 0.00 | 41 | 1011.0 |
| 20260505101022 | 54 | 185 | 0.0 | 0.0 | 0.00 | 0.02 | 0.00 | 40 | 1011.0 |
| 20260505100523 | 53 | 185 | 0.0 | 0.0 | 0.00 | 0.02 | 0.00 | 41 | 1011.1 |
| 20260505100022 | 54 | 185 | 0.0 | 0.0 | 0.00 | 0.02 | 0.00 | 41 | 1011.2 |
| 20260505095521 | 54 | 185 | 0.0 | 0.0 | 0.00 | 0.02 | 0.00 | 40 | 1011.1 |
| 20260505095020 | 54 | 185 | 0.0 | 3.0 | 0.00 | 0.02 | 0.00 | 40 | 1011.0 |
| 20260505094519 | 55 | 185 | 0.0 | 5.0 | 0.00 | 0.02 | 0.00 | 40 | 1011.0 |
| 20260505094018 | 55 | 185 | 2.0 | 7.0 | 0.00 | 0.02 | 0.00 | 39 | 1010.9 |
| 20260505093518 | 55 | 185 | 2.0 | 7.0 | 0.00 | 0.02 | 0.00 | 39 | 1011.1 |
| 20260505093027 | 55 | 185 | 0.0 | 5.0 | 0.00 | 0.02 | 0.00 | 40 | 1011.1 |
| 20260505092517 | 55 | 185 | 0.0 | 6.0 | 0.00 | 0.02 | 0.00 | 40 | 1011.2 |
| 20260505092016 | 55 | 185 | 1.0 | 6.0 | 0.00 | 0.02 | 0.00 | 39 | 1011.2 |
| 20260505091516 | 55 | 185 | 0.0 | 1.0 | 0.00 | 0.02 | 0.00 | 39 | 1011.3 |
| 20260505091015 | 56 | 185 | 0.0 | 0.0 | 0.00 | 0.02 | 0.00 | 39 | 1011.5 |
| 20260505090512 | 56 | 185 | 0.0 | 6.0 | 0.00 | 0.02 | 0.00 | 38 | 1011.7 |
| 20260505090014 | 56 | 185 | 4.0 | 7.0 | 0.00 | 0.02 | 0.00 | 38 | 1011.6 |
| 20260505085513 | 56 | 185 | 3.0 | 10.0 | 0.00 | 0.02 | 0.00 | 37 | 1011.6 |
| 20260505085013 | 57 | 185 | 7.0 | 13.0 | 0.00 | 0.02 | 0.00 | 37 | 1011.6 |
| 20260505084511 | 57 | 185 | 7.0 | 15.0 | 0.00 | 0.02 | 0.00 | 36 | 1011.8 |
| 20260505084009 | 57 | 185 | 9.0 | 15.0 | 0.00 | 0.02 | 0.00 | 37 | 1011.6 |
| 20260505083510 | 57 | 185 | 6.0 | 13.0 | 0.00 | 0.02 | 0.00 | 37 | 1011.4 |
| 20260505083009 | 57 | 185 | 4.0 | 10.0 | 0.00 | 0.02 | 0.00 | 37 | 1011.4 |
| 20260505082509 | 57 | 185 | 6.0 | 10.0 | 0.00 | 0.02 | 0.00 | 37 | 1011.3 |
| 20260505082008 | 56 | 185 | 0.0 | 6.0 | 0.00 | 0.02 | 0.00 | 37 | 1011.4 |
| 20260505081508 | 56 | 185 | 0.0 | 11.0 | 0.00 | 0.02 | 0.00 | 37 | 1011.6 |
| 20260505081008 | 56 | 185 | 6.0 | 11.0 | 0.00 | 0.02 | 0.00 | 36 | 1011.7 |
| 20260505080507 | 56 | 185 | 6.0 | 10.0 | 0.00 | 0.02 | 0.00 | 36 | 1011.9 |
| 20260505080005 | 57 | 185 | 5.0 | 10.0 | 0.00 | 0.02 | 0.00 | 36 | 1011.7 |
| 20260505075505 | 57 | 185 | 6.0 | 10.0 | 0.00 | 0.02 | 0.00 | 35 | 1011.8 |
| 20260505075004 | 57 | 185 | 1.0 | 7.0 | 0.00 | 0.02 | 0.00 | 35 | 1011.8 |
| 20260505074504 | 57 | 185 | 0.0 | 0.0 | 0.00 | 0.02 | 0.00 | 35 | 1011.8 |
| 20260505074003 | 57 | 185 | 0.0 | 7.0 | 0.00 | 0.02 | 0.00 | 35 | 1012.0 |
| 20260505073503 | 57 | 185 | 0.0 | 7.0 | 0.00 | 0.02 | 0.00 | 35 | 1012.0 |
| 20260505073003 | 57 | 185 | 0.0 | 5.0 | 0.00 | 0.02 | 0.00 | 35 | 1012.2 |
| 20260505072501 | 58 | 185 | 0.0 | 7.0 | 0.00 | 0.02 | 0.00 | 34 | 1012.2 |
| 20260505072001 | 58 | 185 | 0.0 | 8.0 | 0.00 | 0.02 | 0.00 | 34 | 1012.3 |
| 20260505071600 | 58 | 185 | 1.0 | 8.0 | 0.00 | 0.02 | 0.00 | 34 | 1012.3 |
| 20260505071059 | 58 | 185 | 3.0 | 7.0 | 0.00 | 0.02 | 0.00 | 33 | 1012.3 |
| 20260505070558 | 58 | 185 | 0.0 | 7.0 | 0.00 | 0.02 | 0.00 | 33 | 1012.2 |
| 20260505070058 | 59 | 185 | 1.0 | 7.0 | 0.00 | 0.02 | 0.00 | 33 | 1012.1 |
| 20260505065557 | 59 | 185 | 0.0 | 6.0 | 0.00 | 0.02 | 0.00 | 32 | 1011.8 |
| 20260505065056 | 59 | 185 | 0.0 | 10.0 | 0.00 | 0.02 | 0.00 | 32 | 1011.8 |
| 20260505064558 | 59 | 185 | 0.0 | 10.0 | 0.00 | 0.02 | 0.00 | 32 | 1011.7 |
| 20260505064056 | 59 | 185 | 0.0 | 15.0 | 0.00 | 0.02 | 0.00 | 31 | 1011.4 |
| 20260505063557 | 59 | 185 | 7.0 | 15.0 | 0.00 | 0.02 | 0.00 | 31 | 1011.5 |
| 20260505063055 | 59 | 185 | 10.0 | 16.0 | 0.00 | 0.02 | 0.00 | 32 | 1011.6 |
| 20260505062555 | 59 | 185 | 10.0 | 16.0 | 0.00 | 0.02 | 0.00 | 32 | 1011.7 |
| 20260505062054 | 59 | 185 | 8.0 | 22.0 | 0.00 | 0.02 | 0.00 | 32 | 1011.8 |
| 20260505061557 | 58 | 185 | 9.0 | 22.0 | 0.00 | 0.02 | 0.00 | 33 | 1011.7 |
| 20260505061052 | 58 | 185 | 8.0 | 15.0 | 0.00 | 0.02 | 0.00 | 32 | 1011.6 |
| 20260505060551 | 58 | 185 | 8.0 | 16.0 | 0.00 | 0.02 | 0.00 | 30 | 1011.7 |
| 20260505060050 | 59 | 185 | 11.0 | 20.0 | 0.00 | 0.02 | 0.00 | 30 | 1011.7 |
| 20260505055550 | 59 | 185 | 13.0 | 20.0 | 0.00 | 0.02 | 0.02 | 30 | 1011.8 |
| 20260505055050 | 59 | 185 | 11.0 | 15.0 | 0.00 | 0.02 | 0.02 | 30 | 1011.8 |
| 20260505054550 | 59 | 185 | 10.0 | 16.0 | 0.00 | 0.02 | 0.02 | 30 | 1011.8 |
| 20260505054049 | 59 | 185 | 9.0 | 16.0 | 0.00 | 0.02 | 0.02 | 29 | 1011.7 |
| 20260505053550 | 59 | 185 | 9.0 | 15.0 | 0.00 | 0.02 | 0.02 | 30 | 1011.8 |
| 20260505053057 | 60 | 185 | 10.0 | 18.0 | 0.00 | 0.02 | 0.02 | 29 | 1011.9 |
| 20260505052549 | 60 | 185 | 12.0 | 18.0 | 0.00 | 0.02 | 0.02 | 29 | 1011.9 |
| 20260505052049 | 59 | 185 | 7.0 | 15.0 | 0.00 | 0.02 | 0.02 | 30 | 1011.9 |
| 20260505051549 | 59 | 185 | 6.0 | 15.0 | 0.00 | 0.02 | 0.02 | 31 | 1012.0 |
| 20260505051050 | 56 | 185 | 2.0 | 6.0 | 0.00 | 0.02 | 0.02 | 33 | 1012.0 |
| 20260505050549 | 56 | 185 | 3.0 | 6.0 | 0.00 | 0.02 | 0.02 | 33 | 1012.0 |
| 20260505041548 | 58 | 185 | 1.0 | 4.0 | 0.00 | 0.02 | 0.02 | 31 | 1012.3 |
| 20260505041047 | 59 | 185 | 0.0 | 4.0 | 0.00 | 0.02 | 0.02 | 30 | 1012.3 |
| 20260505040549 | 59 | 185 | 0.0 | 3.0 | 0.00 | 0.02 | 0.02 | 30 | 1012.4 |
| 20260505040047 | 60 | 185 | 0.0 | 4.0 | 0.00 | 0.02 | 0.02 | 29 | 1012.3 |
| 20260505035546 | 60 | 185 | 0.0 | 4.0 | 0.00 | 0.02 | 0.02 | 29 | 1012.3 |
| 20260505035050 | 60 | 185 | 0.0 | 4.0 | 0.00 | 0.02 | 0.02 | 28 | 1012.2 |
| 20260505034547 | 61 | 185 | 0.0 | 5.0 | 0.00 | 0.02 | 0.02 | 28 | 1012.1 |
| 20260505034047 | 61 | 185 | 1.0 | 8.0 | 0.00 | 0.02 | 0.02 | 27 | 1012.1 |
| 20260505033547 | 62 | 185 | 2.0 | 8.0 | 0.00 | 0.02 | 0.02 | 27 | 1012.0 |
| 20260505033108 | 62 | 185 | 2.0 | 8.0 | 0.00 | 0.02 | 0.02 | 26 | 1011.9 |
| 20260505032547 | 62 | 185 | 1.0 | 6.0 | 0.00 | 0.02 | 0.02 | 26 | 1011.8 |
| 20260505032046 | 63 | 185 | 0.0 | 5.0 | 0.00 | 0.02 | 0.02 | 26 | 1011.7 |
| 20260505031545 | 63 | 185 | 0.0 | 7.0 | 0.00 | 0.02 | 0.02 | 25 | 1011.6 |
| 20260505031049 | 63 | 185 | 2.0 | 9.0 | 0.00 | 0.02 | 0.02 | 25 | 1011.5 |
| 20260505030546 | 63 | 185 | 3.0 | 9.0 | 0.00 | 0.02 | 0.02 | 25 | 1011.4 |
| 20260505030045 | 64 | 185 | 2.0 | 13.0 | 0.00 | 0.02 | 0.02 | 25 | 1011.3 |
| 20260505025545 | 63 | 185 | 4.0 | 13.0 | 0.00 | 0.02 | 0.02 | 26 | 1011.3 |
| 20260505025044 | 63 | 185 | 4.0 | 8.0 | 0.00 | 0.02 | 0.02 | 26 | 1011.2 |
| 20260505024544 | 62 | 185 | 1.0 | 6.0 | 0.00 | 0.02 | 0.02 | 27 | 1011.2 |
| 20260505024044 | 62 | 185 | 1.0 | 8.0 | 0.00 | 0.02 | 0.02 | 27 | 1011.1 |
| 20260505023544 | 62 | 185 | 3.0 | 8.0 | 0.00 | 0.02 | 0.02 | 27 | 1011.1 |
| 20260505023056 | 62 | 185 | 0.0 | 1.0 | 0.00 | 0.02 | 0.02 | 27 | 1011.0 |
| 20260505022547 | 62 | 185 | 0.0 | 3.0 | 0.00 | 0.02 | 0.02 | 26 | 1011.0 |
| 20260505022047 | 63 | 185 | 0.0 | 3.0 | 0.00 | 0.02 | 0.02 | 25 | 1010.9 |
| 20260505021544 | 64 | 185 | 0.0 | 4.0 | 0.00 | 0.02 | 0.02 | 24 | 1010.9 |
| 20260505021044 | 64 | 185 | 0.0 | 14.0 | 0.00 | 0.02 | 0.02 | 24 | 1011.0 |
| 20260505020543 | 65 | 185 | 5.0 | 14.0 | 0.00 | 0.02 | 0.02 | 24 | 1010.9 |
| 20260505020048 | 64 | 185 | 0.0 | 3.0 | 0.00 | 0.02 | 0.02 | 24 | 1011.0 |
| 20260505015543 | 64 | 185 | 0.0 | 4.0 | 0.00 | 0.02 | 0.02 | 23 | 1011.0 |
| 20260505015045 | 65 | 185 | 1.0 | 4.0 | 0.00 | 0.02 | 0.02 | 23 | 1011.0 |
| 20260505014542 | 65 | 185 | 0.0 | 4.0 | 0.00 | 0.02 | 0.02 | 22 | 1011.0 |
| 20260505014044 | 65 | 185 | 1.0 | 5.0 | 0.00 | 0.02 | 0.02 | 22 | 1010.9 |
| 20260505013544 | 65 | 185 | 1.0 | 6.0 | 0.00 | 0.02 | 0.02 | 22 | 1011.0 |
| 20260505013042 | 65 | 185 | 0.0 | 6.0 | 0.00 | 0.02 | 0.02 | 21 | 1010.9 |
| 20260505012542 | 66 | 185 | 0.0 | 5.0 | 0.00 | 0.02 | 0.02 | 21 | 1010.8 |
| 20260505012043 | 66 | 185 | 0.0 | 5.0 | 0.00 | 0.02 | 0.02 | 20 | 1010.8 |
| 20260505011542 | 66 | 185 | 0.0 | 6.0 | 0.00 | 0.02 | 0.02 | 20 | 1010.8 |
| 20260505011042 | 67 | 185 | 0.0 | 7.0 | 0.00 | 0.02 | 0.02 | 20 | 1010.8 |
| 20260505010541 | 67 | 185 | 0.0 | 9.0 | 0.00 | 0.02 | 0.02 | 19 | 1010.9 |
| 20260505010043 | 67 | 185 | 3.0 | 9.0 | 0.00 | 0.02 | 0.02 | 19 | 1010.8 |
| 20260505005541 | 67 | 185 | 0.0 | 8.0 | 0.00 | 0.02 | 0.02 | 19 | 1010.8 |
| 20260505005041 | 67 | 185 | 0.0 | 10.0 | 0.00 | 0.02 | 0.02 | 18 | 1010.8 |
| 20260505004547 | 67 | 185 | 4.0 | 10.0 | 0.00 | 0.02 | 0.02 | 18 | 1010.8 |